Wetbulb
49.77 54.95 55.58 56.41 56.20 56.31 53.68 51.52 47.54 49.42 50.64 58.81 63.23 64.02 66.16 67.25 67.91 67.45 66.60 66.14 65.73 65.21 65.40 65.64 66.08 65.12 65.87 65.58 65.92 65.89 65.57 65.79 66.44 67.93 69.20 71.06 71.93 72.84 73.67 73.87 74.46 75.77 75.96 75.68
47.69 51.13 50.87 54.67 56.17 56.25 54.31 54.24 51.07 51.85 53.44 61.24 63.53 64.37 65.66 67.30 66.07 63.84 63.68 64.39 65.05 65.15 64.72 65.01 64.48 64.45 65.60 64.74 64.55 65.30 64.72 65.05 65.99 66.35 66.68 66.69 68.24 70.03 70.96 71.74 71.54 71.85 72.32 73.76
41.85 48.99 49.83 46.32 50.86 52.47 52.39 52.12 52.16 48.45 53.07 57.98 59.21 64.78 66.03 64.65 63.74 62.87 63.36 63.28 63.35 64.01 63.83 63.28 64.29 64.50 63.49 64.15 64.77 64.91 65.02 65.89 65.99 66.46 66.37 66.71 66.82 66.75 66.72 68.61 70.83 70.88 70.97 71.36
44.05 45.30 40.06 49.04 54.06 55.13 54.71 55.58 54.63 54.13 56.20 60.16 61.62 65.59 65.88 64.79 63.05 62.56 63.57 63.39 62.78 62.28 62.76 62.99 63.08 63.22 63.19 62.80 63.21 63.29 63.10 62.79 62.81 62.99 62.99 63.65 64.07 64.27 65.08 66.06 66.93 69.41 69.91 70.61
44.28 44.22 47.91 51.82 54.14 53.64 52.19 52.30 56.46 55.31 56.84 60.02 62.83 63.15 64.54 64.81 64.10 63.66 63.48 63.16 62.29 62.31 62.44 61.97 61.75 62.32 62.39 61.55 61.79 61.01 60.67 60.81 61.37 62.05 62.50 62.76 62.53 62.64 63.38 64.00 64.86 66.21 68.41 69.54
46.43 43.39 42.19 50.77 55.89 57.66 56.05 48.75 58.59 60.43 61.14 60.98 59.64 56.05 57.61 62.65 64.23 63.38 62.83 61.74 61.24 62.20 62.42 61.86 61.49 62.07 60.49 60.03 58.51 57.92 59.37 61.97 61.70 60.93 60.56 60.49 61.21 61.30 61.85 62.17 63.38 65.08 65.70 67.87
45.40 43.55 47.38 56.68 57.23 56.76 45.91 49.00 59.17 62.99 61.41 60.64 58.45 60.23 61.49 63.02 62.64 62.42 61.73 61.53 61.67 61.90 61.60 61.12 62.01 61.17 58.93 57.14 56.69 60.17 60.08 59.07 59.35 59.97 58.24 57.82 57.60 59.76 60.91 60.89 62.48 63.38 64.66 66.73
45.72 43.65 41.66 58.17 58.09 54.14 56.34 57.76 62.05 62.84 61.97 61.21 61.40 61.58 61.40 61.81 61.36 61.92 61.03 61.37 61.99 61.32 61.31 61.74 61.07 60.22 57.55 56.25 58.45 59.00 59.46 59.26 59.69 59.77 58.41 56.04 54.89 55.80 58.18 60.91 60.79 61.91 63.02 63.11
49.29 48.46 55.82 58.57 57.18 58.39 59.08 56.92 61.38 62.42 63.12 62.47 61.59 61.74 61.89 60.93 60.54 62.05 61.76 60.68 61.52 61.43 60.53 60.86 60.59 59.31 56.99 57.83 58.43 57.30 56.74 56.72 57.30 58.47 57.01 55.05 51.92 51.74 55.90 56.88 62.69 61.61 62.60 60.40
52.25 53.44 55.69 58.38 59.15 59.63 58.50 57.38 61.26 63.70 63.38 63.35 62.21 62.18 61.66 61.02 60.45 61.30 61.21 60.64 61.28 60.08 59.03 58.82 58.74 59.23 57.79 57.39 58.50 57.60 55.98 55.61 55.64 54.96 56.22 55.41 52.26 50.22 51.45 49.65 55.44 60.63 57.55 55.72
52.41 54.33 55.52 58.75 59.46 59.54 62.14 62.37 62.07 62.05 62.50 62.83 62.71 62.13 61.11 60.48 60.42 60.34 59.86 59.71 60.32 59.29 58.68 57.89 58.69 58.14 57.82 57.63 57.71 56.94 55.70 53.88 52.91 53.42 54.40 54.04 54.38 50.44 49.05 48.53 48.62 53.79 54.55 53.65
50.24 53.89 53.28 55.45 58.95 61.24 62.02 61.55 61.92 61.23 60.97 62.68 62.28 61.09 61.61 60.70 60.50 60.64 60.66 60.23 60.10 59.20 59.18 58.55 58.63 58.09 58.35 58.70 57.72 55.90 54.56 52.78 51.79 51.83 52.90 53.42 52.84 52.43 52.08 49.25 47.10 45.53 45.11 49.78
52.76 56.10 56.94 58.69 61.19 62.54 61.44 61.73 61.96 61.11 60.62 61.72 62.14 61.05 61.48 60.39 59.82 58.97 61.03 60.82 60.43 60.11 59.72 58.93 58.57 58.16 58.11 57.91 58.19 55.42 53.60 53.07 51.56 50.78 51.04 50.56 51.90 50.88 49.73 51.44 49.27 46.33 45.14 44.61
57.25 56.41 55.50 57.50 56.63 60.30 62.12 62.06 60.60 62.23 61.90 61.16 61.24 60.27 59.08 58.09 58.63 59.35 58.86 59.36 61.00 60.66 61.19 59.31 58.59 57.70 58.40 58.14 57.15 55.03 53.85 53.19 52.06 50.84 50.16 49.74 49.77 49.97 50.10 50.43 49.73 50.22 49.12 45.38
56.47 55.77 54.17 55.57 56.50 56.93 59.87 61.36 61.05 61.06 61.38 60.10 59.52 58.42 57.89 57.20 57.52 58.10 59.30 61.32 60.80 59.59 59.26 60.19 58.64 57.62 58.14 58.03 56.61 56.18 55.47 53.80 52.34 51.48 50.21 50.13 49.82 49.35 48.90 49.48 51.49 51.72 52.63 50.68
57.60 57.19 56.30 56.13 55.58 57.55 58.24 61.02 59.57 58.66 59.11 59.28 59.58 59.03 58.96 58.20 57.42 57.30 59.67 60.17 58.70 58.35 58.43 58.54 59.69 60.05 59.72 59.95 57.95 56.55 56.06 57.82 54.64 51.73 50.78 50.21 49.92 49.79 49.15 48.45 48.05 48.96 49.97 51.92
55.83 54.91 56.17 56.48 57.95 56.69 57.83 59.78 59.89 58.40 57.91 59.20 57.75 60.40 59.72 57.08 56.76 56.32 57.04 61.07 60.20 60.14 59.74 59.20 59.08 60.14 60.00 59.83 59.70 59.39 58.71 54.85 57.97 55.73 53.62 53.72 51.82 52.13 52.67 52.35 50.66 50.65 51.38 52.01
58.36 58.62 60.48 60.27 59.83 58.75 58.02 59.45 59.52 59.57 60.25 60.40 58.99 57.25 58.66 57.44 55.95 56.66 57.51 59.63 60.64 59.88 60.09 60.33 59.98 59.14 59.43 59.58 60.00 59.62 57.12 58.05 56.15 54.73 55.47 55.18 55.15 54.62 53.95 54.25 54.45 54.55 54.95 54.03
61.70 60.56 60.12 60.63 60.40 58.96 57.12 56.67 57.64 59.08 60.70 60.07 55.95 56.20 58.13 58.73 56.82 56.76 57.59 58.86 58.84 57.82 59.16 61.14 61.66 60.72 60.36 60.50 61.09 58.02 58.76 58.70 57.02 56.68 54.27 55.77 53.46 53.17 54.09 53.33 53.23 53.11 53.81 54.49
60.34 60.98 60.66 60.77 60.61 59.42 59.26 59.61 59.91 59.49 60.34 60.28 57.25 57.82 58.50 57.58 57.64 58.67 58.50 57.07 58.30 59.39 59.78 60.82 59.17 59.31 59.64 59.73 59.20 52.96 55.46 57.01 56.43 54.61 54.59 54.28 54.12 52.74 54.69 52.77 55.72 54.80 54.69 54.94
59.55 59.87 59.54 58.97 58.74 59.42 59.05 58.45 57.74 56.98 57.55 59.23 60.49 60.01 58.79 58.77 58.71 57.85 56.59 55.66 58.63 60.76 60.81 59.86 58.84 58.89 59.31 59.30 57.04 53.73 55.29 56.01 56.20 53.85 54.17 55.06 52.86 52.26 54.07 53.64 53.43 53.58 54.05 55.66
57.88 57.50 57.71 57.85 57.44 57.42 58.39 58.28 58.54 58.88 58.78 57.87 58.11 58.37 57.80 57.32 56.49 56.53 58.30 57.07 60.05 57.94 59.77 59.05 58.78 59.12 57.65 57.26 55.28 55.83 55.79 56.23 54.39 53.17 53.04 54.31 55.39 53.70 54.49 55.69 54.65 53.77 54.90 55.16
57.25 57.64 57.99 57.30 56.52 56.72 57.63 57.73 57.60 57.86 57.92 58.51 57.85 57.33 56.43 56.94 56.52 55.76 55.47 59.28 61.10 57.28 59.70 59.12 57.64 58.21 57.48 57.39 57.10 56.53 55.73 56.10 53.91 54.03 54.53 55.07 54.36 55.07 55.91 54.78 54.82 56.51 56.06 55.68
57.80 57.80 57.12 57.86 58.01 56.05 54.60 56.06 56.31 57.18 58.06 58.96 59.06 59.18 58.30 57.81 57.24 59.42 59.55 57.99 54.47 57.10 58.01 56.80 56.73 56.27 54.55 57.10 56.19 54.85 54.16 54.81 54.36 54.71 55.32 53.26 56.02 56.42 56.11 55.72 55.91 55.54 54.94 53.94
57.77 58.14 57.80 57.33 55.77 55.33 55.47 56.05 56.71 56.84 57.54 57.98 58.39 59.07 59.19 59.13 57.91 58.75 60.33 58.91 54.62 57.23 58.41 55.00 54.43 53.89 54.57 55.09 54.83 54.78 55.35 55.39 55.44 55.25 55.22 56.11 56.55 55.56 57.66 57.46 56.78 56.30 56.82 56.84
57.65 57.66 58.60 58.29 57.76 57.03 56.81 57.07 56.49 57.41 57.55 57.15 58.00 58.94 59.68 59.71 59.47 58.80 59.72 57.33 57.85 55.51 57.29 56.53 55.74 55.03 56.41 55.62 55.48 54.53 56.81 57.41 55.99 54.51 53.86 54.97 56.46 56.16 56.03 57.07 56.15 55.21 55.79 57.66
58.82 53.70 58.80 58.24 57.91 58.65 57.78 57.56 57.06 55.75 55.22 56.11 57.38 58.75 58.70 58.71 56.90 57.80 55.13 57.63 57.60 56.85 56.95 57.43 56.93 55.46 55.67 55.09 54.74 55.19 56.81 55.82 53.66 56.11 55.44 55.89 57.12 56.64 56.71 57.08 56.42 56.70 57.12 56.91
MSLP
996.48 997.38 998.04 999.47 997.72 996.45 996.25 996.52 996.92 996.69 996.58 995.97 996.36 996.85 997.94 999.16 1000.59 1002.25 1003.66 1004.70 1005.83 1006.68 1007.31 1007.69 1008.03 1008.36 1008.17 1007.92 1007.99 1008.18 1008.56 1008.65 1008.60 1008.26 1008.02 1007.71 1007.43 1007.17 1006.88 1006.60 1006.40 1006.10 1005.63 1005.44
996.21 996.30 996.47 997.64 995.79 995.15 994.99 994.85 995.36 996.14 996.78 996.74 997.10 997.46 998.75 1000.49 1002.06 1003.34 1004.36 1004.76 1005.51 1006.26 1007.44 1007.96 1008.48 1009.20 1009.23 1009.02 1008.87 1008.91 1009.02 1009.17 1008.89 1008.62 1008.42 1008.16 1007.62 1007.12 1006.69 1006.18 1005.88 1005.76 1005.46 1004.98
996.76 996.43 996.24 995.86 994.70 994.16 993.69 993.63 994.96 996.15 997.27 997.25 997.99 998.76 1000.15 1002.01 1002.98 1004.22 1005.23 1006.03 1006.15 1006.11 1006.63 1008.31 1008.80 1009.01 1009.81 1009.58 1009.37 1009.31 1009.36 1009.43 1009.18 1008.95 1008.75 1008.39 1007.79 1007.37 1006.85 1006.31 1005.85 1005.41 1005.09 1004.71
996.97 996.88 996.29 994.96 993.73 993.50 994.04 994.33 994.75 995.88 997.21 997.77 998.66 999.79 1001.37 1002.21 1003.26 1004.60 1005.36 1005.93 1005.89 1006.53 1007.53 1008.51 1008.72 1009.32 1009.66 1009.74 1009.59 1009.71 1009.97 1009.74 1009.45 1009.24 1008.96 1008.41 1007.94 1007.45 1006.94 1006.31 1005.74 1005.48 1004.88 1004.42
996.99 996.76 995.89 994.56 994.01 994.17 994.33 996.19 996.08 996.71 997.65 998.63 999.65 1000.57 1003.12 1003.51 1003.76 1004.34 1005.07 1005.93 1006.58 1007.23 1008.10 1008.56 1009.11 1009.54 1009.79 1010.05 1010.38 1010.60 1010.46 1010.08 1009.72 1009.47 1008.86 1008.36 1007.81 1007.26 1006.72 1006.26 1005.66 1004.97 1004.71 1004.09
996.90 997.02 996.37 995.26 994.33 994.12 994.80 996.72 997.20 997.51 998.37 999.15 999.93 1002.44 1004.50 1004.57 1004.83 1005.35 1005.77 1006.23 1006.86 1007.57 1008.20 1009.01 1009.32 1009.65 1010.30 1010.97 1011.16 1011.15 1010.82 1010.58 1010.26 1009.73 1009.10 1008.55 1007.74 1007.08 1006.44 1005.96 1005.23 1004.68 1004.11 1003.69
997.04 996.85 996.28 995.64 994.66 994.52 996.52 998.55 998.18 998.64 999.29 999.55 1000.76 1001.89 1003.73 1004.54 1005.25 1005.80 1006.49 1006.96 1007.38 1008.07 1008.83 1009.39 1009.63 1010.24 1011.13 1011.53 1011.58 1011.41 1011.13 1010.65 1010.14 1009.53 1009.38 1008.69 1008.08 1007.02 1006.38 1005.64 1004.94 1004.42 1003.94 1003.32
996.60 996.92 997.17 995.97 996.09 997.06 998.32 998.30 998.96 999.82 1000.32 1001.09 1001.84 1003.05 1003.96 1004.79 1005.62 1006.41 1007.24 1007.54 1007.93 1008.55 1009.24 1009.45 1010.08 1010.80 1011.52 1011.73 1011.62 1011.32 1010.98 1010.72 1010.19 1009.64 1009.30 1009.03 1008.19 1007.16 1006.37 1005.38 1004.56 1004.13 1003.72 1003.60
996.11 997.06 996.92 996.62 997.21 997.62 998.12 998.74 999.65 1000.19 1001.03 1001.46 1002.41 1003.48 1004.23 1005.25 1005.79 1006.52 1007.23 1007.72 1008.17 1008.68 1009.26 1009.76 1010.31 1010.83 1011.41 1011.24 1011.18 1011.01 1011.03 1010.73 1010.36 1009.88 1009.44 1009.40 1008.54 1007.69 1006.74 1005.62 1004.31 1004.11 1004.01 1004.19
996.21 997.20 996.92 996.90 997.16 997.74 998.23 998.79 999.27 1000.07 1000.73 1001.42 1002.44 1003.36 1004.38 1005.27 1005.78 1006.53 1007.11 1007.69 1008.13 1008.70 1009.36 1010.20 1010.50 1010.81 1011.01 1010.88 1010.64 1010.74 1010.89 1010.90 1010.56 1010.18 1009.81 1009.69 1009.27 1008.35 1007.89 1006.92 1005.85 1005.28 1005.11 1005.13
997.00 996.91 996.53 996.86 996.86 997.75 998.56 999.02 999.72 1000.21 1000.93 1001.82 1002.77 1003.83 1004.59 1005.44 1005.87 1006.49 1007.03 1007.60 1008.19 1008.89 1009.63 1010.26 1010.49 1010.71 1010.71 1010.53 1010.51 1010.72 1011.00 1011.07 1010.87 1010.64 1010.29 1010.13 1009.81 1009.70 1009.01 1008.78 1007.86 1007.24 1006.94 1006.82
997.87 997.11 997.24 997.26 997.25 997.71 998.57 999.31 999.90 1000.54 1001.48 1002.18 1002.87 1003.80 1004.55 1005.36 1005.78 1006.37 1007.04 1007.55 1008.15 1008.79 1009.40 1010.00 1010.38 1010.60 1010.55 1010.37 1010.44 1010.77 1011.24 1011.31 1011.21 1011.14 1010.96 1010.52 1010.27 1010.13 1009.77 1009.61 1009.15 1008.76 1008.49 1008.08
998.10 997.44 997.49 997.64 997.68 998.03 998.89 999.34 999.94 1000.46 1001.22 1002.17 1002.99 1003.60 1004.34 1005.25 1005.80 1006.30 1006.86 1007.46 1007.99 1008.59 1009.15 1009.60 1010.07 1010.37 1010.32 1010.14 1010.34 1010.72 1011.05 1011.23 1011.41 1011.50 1011.36 1011.23 1011.13 1010.86 1010.50 1010.22 1010.01 1009.90 1009.51 1009.32
997.90 997.89 997.97 997.98 998.23 998.56 999.02 999.44 999.89 1000.49 1001.25 1002.12 1002.77 1003.34 1004.24 1005.22 1005.78 1006.43 1006.94 1007.36 1007.63 1008.17 1008.68 1009.33 1009.72 1009.98 1009.92 1009.83 1010.13 1010.50 1010.86 1011.02 1011.21 1011.46 1011.57 1011.68 1011.65 1011.53 1011.41 1011.01 1010.70 1010.64 1010.37 1010.31
998.12 998.07 998.19 998.32 998.39 998.64 998.98 999.52 1000.32 1001.07 1001.56 1002.58 1003.46 1003.97 1004.48 1005.14 1005.92 1006.19 1006.72 1007.06 1007.44 1007.93 1008.33 1008.79 1009.27 1009.50 1009.48 1009.58 1009.85 1010.21 1010.55 1010.82 1011.19 1011.53 1011.76 1011.86 1011.83 1011.98 1011.91 1011.80 1011.40 1010.77 1010.75 1010.77
997.94 998.16 998.35 998.78 999.05 999.16 999.69 1000.14 1000.99 1001.94 1002.60 1003.32 1004.12 1004.99 1004.87 1005.35 1005.63 1006.03 1006.50 1006.98 1007.45 1007.76 1008.00 1008.25 1008.53 1008.78 1008.92 1009.18 1009.50 1009.83 1010.01 1010.27 1010.74 1011.21 1011.56 1011.78 1011.84 1011.79 1011.83 1011.92 1011.94 1011.82 1011.18 1010.72
998.14 998.62 999.02 999.47 999.94 1000.72 1001.11 1001.26 1002.21 1003.42 1004.18 1007.22 1005.52 1005.45 1005.89 1005.58 1005.49 1005.97 1006.23 1006.58 1006.82 1007.13 1007.31 1007.61 1007.94 1008.13 1008.43 1008.75 1009.09 1009.24 1009.50 1009.88 1010.22 1010.74 1011.04 1011.23 1011.37 1011.42 1011.34 1011.44 1011.56 1011.56 1011.29 1011.03
998.52 998.88 999.89 1000.39 1001.14 1002.16 1002.49 1002.63 1003.37 1004.06 1004.82 1005.15 1006.79 1006.70 1006.48 1006.20 1005.92 1006.04 1006.19 1006.22 1006.61 1006.86 1007.15 1007.22 1007.34 1007.65 1007.97 1008.29 1008.51 1008.69 1009.06 1009.35 1009.46 1009.79 1009.87 1010.29 1010.58 1010.62 1010.73 1010.75 1010.73 1010.68 1010.73 1010.71
999.68 1000.16 1000.73 1001.32 1001.99 1002.33 1002.66 1003.01 1003.44 1003.77 1004.73 1004.51 1005.44 1005.90 1006.31 1006.38 1005.88 1005.97 1005.99 1006.17 1006.51 1006.80 1006.97 1006.81 1006.72 1007.20 1007.56 1007.75 1008.00 1008.34 1008.62 1008.85 1008.91 1009.12 1009.33 1009.56 1009.56 1009.72 1009.91 1010.01 1010.03 1009.96 1009.97 1010.01
1000.80 1001.05 1001.43 1001.90 1002.18 1002.51 1002.93 1003.14 1003.23 1003.57 1004.16 1004.83 1005.45 1005.86 1005.59 1005.47 1005.51 1005.66 1005.89 1006.11 1006.32 1006.25 1006.31 1006.42 1006.52 1006.93 1007.01 1007.57 1007.61 1007.82 1008.08 1008.19 1008.38 1008.76 1008.90 1008.93 1009.11 1009.09 1009.07 1009.24 1009.29 1009.29 1009.29 1009.26
1001.65 1002.03 1002.43 1002.72 1003.04 1003.18 1003.17 1003.30 1003.44 1003.57 1003.76 1004.01 1004.20 1004.47 1004.70 1005.09 1005.29 1005.58 1005.91 1006.14 1005.89 1005.66 1005.86 1006.08 1006.51 1006.98 1006.96 1006.96 1007.08 1007.31 1007.57 1007.60 1007.94 1008.37 1008.34 1008.44 1008.46 1008.51 1008.56 1008.57 1008.63 1008.64 1008.73 1008.89
1002.54 1002.89 1003.22 1003.41 1003.65 1003.81 1003.91 1004.02 1004.09 1004.11 1004.09 1003.93 1004.03 1004.20 1004.45 1004.76 1005.00 1005.17 1005.06 1005.18 1005.30 1005.36 1005.62 1005.99 1006.35 1006.42 1006.64 1006.53 1006.84 1007.04 1007.07 1007.21 1007.60 1007.76 1007.89 1008.03 1008.03 1008.11 1008.13 1008.12 1008.17 1008.21 1008.25 1007.74
1003.10 1003.30 1003.52 1003.79 1003.99 1004.10 1004.16 1004.26 1004.34 1004.29 1004.30 1004.23 1004.16 1004.26 1004.35 1004.48 1004.68 1004.82 1004.95 1004.90 1005.06 1005.24 1005.42 1005.84 1006.20 1006.70 1006.61 1006.56 1006.54 1006.72 1006.74 1006.97 1007.28 1007.36 1007.50 1007.63 1007.65 1007.66 1007.58 1007.53 1007.54 1007.90 1007.82 1007.79
1003.44 1003.54 1003.76 1003.92 1003.97 1004.13 1004.30 1004.30 1004.31 1004.27 1004.12 1004.03 1004.01 1004.01 1004.12 1004.26 1004.41 1004.38 1004.42 1004.55 1004.99 1005.27 1005.58 1006.01 1006.30 1006.40 1006.73 1006.69 1006.59 1006.68 1006.70 1006.75 1006.86 1007.07 1007.19 1007.27 1007.38 1007.27 1007.10 1007.16 1007.01 1006.98 1007.03 1007.09
1003.61 1003.62 1003.75 1003.83 1004.00 1004.12 1004.21 1004.21 1004.18 1004.14 1004.08 1004.04 1003.94 1003.93 1003.92 1004.00 1004.25 1004.28 1004.38 1004.71 1005.16 1005.42 1005.74 1005.92 1006.08 1006.39 1006.63 1006.47 1006.42 1006.48 1006.37 1006.37 1006.42 1006.41 1006.73 1006.87 1006.79 1006.73 1006.57 1006.04 1006.43 1006.41 1006.52 1006.57
1003.60 1003.68 1003.72 1003.87 1003.91 1003.89 1003.96 1004.06 1004.13 1004.08 1004.02 1004.02 1004.03 1004.06 1003.99 1004.08 1004.18 1004.26 1004.46 1004.84 1005.00 1005.30 1005.43 1005.76 1006.13 1006.31 1006.27 1006.26 1006.16 1006.15 1005.97 1005.81 1005.78 1005.85 1005.86 1005.84 1005.63 1005.58 1005.47 1005.54 1005.85 1005.97 1006.02 1006.00
1003.54 1003.52 1003.66 1003.74 1003.65 1003.70 1003.93 1004.03 1004.09 1004.15 1004.04 1004.07 1004.22 1004.30 1004.32 1004.46 1004.46 1004.56 1004.63 1004.78 1004.91 1005.14 1005.27 1005.34 1005.53 1005.72 1005.90 1005.79 1005.74 1005.58 1005.26 1005.18 1005.10 1005.15 1005.28 1005.20 1005.05 1005.00 1005.16 1005.09 1005.19 1005.32 1005.53 1005.49
Wind_Speed
4 13 25 17 10 23 21 13 6 8 1 6 13 15 17 15 17 21 20 19 16 14 11 9 10 9 8 8 8 7 7 7 7 6 7 7 7 7 7 7 6 7 8 8
6 6 6 25 27 26 18 19 7 8 8 5 6 10 12 16 22 22 19 18 15 13 9 7 6 5 7 6 6 4 4 6 7 7 7 7 7 7 7 7 7 7 7 6
5 5 7 8 9 4 4 4 4 6 7 8 7 9 18 22 20 19 15 10 9 9 10 4 7 6 5 6 5 6 5 6 6 6 7 7 8 8 8 8 10 8 8 8
5 3 6 8 7 5 2 4 7 8 10 12 14 17 20 18 21 16 14 9 8 8 7 8 6 6 5 6 7 7 7 7 8 8 9 9 9 9 9 8 7 9 9 9
6 4 6 4 4 4 5 4 8 10 9 15 21 24 13 11 14 16 13 8 7 8 7 8 8 6 7 7 8 9 9 8 9 9 8 10 10 11 9 10 10 6 9 10
1 4 6 9 6 10 8 4 8 11 9 10 9 12 5 12 15 13 10 8 8 10 9 8 7 8 8 8 8 7 7 10 10 10 11 11 11 10 8 11 11 7 8 10
3 4 2 6 8 6 4 5 7 14 8 8 7 10 13 12 11 12 9 7 8 10 9 7 8 8 8 7 6 7 7 7 8 8 8 10 11 10 9 10 9 7 8 8
3 4 2 3 9 7 3 7 12 12 14 17 18 17 15 13 11 10 9 5 8 9 8 8 8 8 6 5 3 4 5 6 7 9 10 11 11 11 11 10 8 8 7 2
8 7 6 10 10 7 7 3 8 14 11 15 14 15 11 10 10 10 10 7 7 9 10 7 7 7 4 1 3 2 4 5 6 8 9 11 11 11 9 11 8 4 1 4
7 5 7 10 8 7 5 1 9 14 14 12 16 15 10 10 8 7 7 7 7 10 9 7 6 5 3 2 2 2 4 5 6 8 9 9 10 8 8 9 8 4 4 5
4 5 6 4 6 8 10 11 11 9 12 14 14 10 12 9 9 8 7 6 7 8 7 7 6 4 2 1 2 4 6 5 5 4 7 8 8 11 8 10 10 7 7 7
3 5 3 2 8 10 10 10 9 10 9 10 12 10 9 7 7 7 7 6 6 8 8 7 7 4 2 1 3 4 6 4 4 4 5 6 6 8 19 20 22 22 20 12
3 6 8 6 7 9 9 9 13 13 11 12 9 9 8 7 5 6 8 7 7 8 8 8 8 5 2 3 4 6 6 5 4 4 4 4 6 6 7 8 12 18 16 16
7 7 6 6 1 5 7 10 12 9 9 9 8 9 9 8 7 7 6 5 6 8 9 8 8 7 7 4 5 6 6 8 5 4 4 4 4 4 4 4 6 6 9 10
6 5 2 5 5 5 4 10 12 14 13 10 7 8 8 9 7 6 6 6 7 7 7 9 7 6 4 4 5 5 6 5 5 4 3 3 3 3 3 4 3 4 3 5
4 6 7 7 6 4 2 12 13 10 9 10 9 5 5 6 5 4 5 8 8 7 8 8 9 9 7 6 5 3 2 9 8 6 5 4 3 4 3 2 3 4 3 3
4 5 5 7 8 10 11 13 15 15 18 16 13 5 5 3 4 0 3 8 8 8 9 8 8 7 7 6 6 4 4 3 4 8 6 7 6 5 5 4 4 4 4 3
3 4 15 11 11 11 11 13 11 12 10 13 5 3 8 4 4 4 4 2 6 6 7 7 7 8 7 6 6 4 4 4 4 4 4 7 7 8 6 6 6 6 5 5
15 15 13 12 10 10 8 9 7 7 8 11 12 12 12 12 3 3 4 3 6 6 7 7 11 10 8 7 6 4 5 5 4 4 4 5 4 5 5 5 5 5 5 4
9 9 9 8 10 8 6 3 4 6 8 13 13 13 11 5 4 1 3 1 4 6 7 7 7 6 6 8 7 4 3 4 5 5 4 4 4 5 5 6 6 6 5 5
9 8 9 10 8 7 8 7 5 4 3 5 2 6 6 6 5 4 3 3 3 4 6 10 6 4 5 5 5 4 4 3 4 6 4 4 4 4 5 5 5 5 4 2
7 7 7 7 7 6 7 6 6 6 7 2 2 2 5 5 5 5 7 6 3 5 5 5 5 6 4 7 2 3 5 4 5 4 3 3 3 3 3 4 5 5 4 3
6 6 6 7 4 3 5 5 6 6 5 4 3 1 2 3 2 1 0 2 4 5 4 5 7 2 4 2 1 3 4 6 5 5 4 3 4 4 4 4 3 3 5 5
5 5 3 2 1 3 3 3 3 5 5 4 4 3 1 1 2 1 3 4 8 7 6 7 7 7 7 3 3 3 2 5 5 4 5 6 4 5 4 3 4 3 4 5
1 1 2 3 2 1 1 3 4 4 4 3 4 1 2 2 3 2 3 5 8 7 6 9 11 8 5 3 4 5 4 3 4 5 5 5 6 5 5 7 5 5 6 5
2 2 2 2 0 1 3 1 1 1 1 2 2 1 3 0 2 3 3 7 5 5 4 5 5 5 3 4 5 5 5 5 6 5 5 5 6 5 5 4 5 5 6 4
4 2 3 2 2 1 3 4 2 3 4 3 3 2 3 3 4 3 2 4 5 4 4 4 5 6 5 5 5 6 6 5 5 4 4 5 6 4 5 4 4 3 3 2
Wind_Direction
247 171 198 228 270 267 244 227 193 259 340 73 120 120 133 126 109 94 84 76 69 59 50 38 29 21 27 33 31 30 16 0 337 332 333 330 315 292 277 275 288 285 259 252
326 323 324 190 207 242 245 231 236 122 67 76 69 142 135 110 96 100 102 107 107 105 97 83 70 19 18 17 2 9 333 304 299 299 294 288 291 299 295 277 261 265 269 269
255 304 316 298 249 291 291 64 86 100 162 93 63 104 112 112 112 112 99 97 108 120 98 124 81 75 22 7 354 358 345 330 340 337 325 315 307 301 296 299 292 265 268 260
203 217 234 245 281 283 19 101 128 113 112 98 83 91 104 122 121 124 134 136 111 114 117 114 88 58 32 360 11 9 11 360 352 342 326 319 316 308 299 291 288 288 273 262
153 209 239 258 319 61 150 75 58 95 86 104 90 82 84 121 129 134 136 145 133 105 107 84 75 54 34 26 27 17 357 340 324 312 310 311 306 297 292 299 291 276 287 282
14 168 240 244 117 59 42 50 8 75 77 91 119 96 131 120 129 127 110 107 110 114 100 86 60 54 46 42 27 354 332 348 357 344 338 321 312 307 305 295 281 273 281 284
249 196 204 329 16 65 108 226 62 85 72 76 95 135 136 116 93 102 98 99 99 94 94 93 74 64 64 48 15 2 360 353 351 336 327 337 323 318 299 289 290 291 280 273
193 152 156 358 42 78 176 26 95 96 102 97 104 108 113 120 117 110 118 100 102 104 106 90 84 84 85 53 28 2 1 346 352 355 355 345 334 326 321 307 279 281 282 32
139 170 152 90 112 89 96 70 115 116 123 120 123 121 124 113 107 115 125 125 124 116 99 87 89 96 74 328 130 34 359 353 4 6 12 3 353 341 336 341 320 281 69 83
78 10 101 115 117 121 104 188 138 143 146 141 136 139 137 136 139 118 98 93 91 97 97 92 86 92 115 4 355 124 24 30 9 24 20 13 10 5 359 353 340 24 56 80
90 50 75 49 141 137 111 93 95 96 100 95 105 96 110 114 106 111 110 107 115 116 119 121 111 100 108 3 23 69 70 41 19 17 37 26 39 26 28 26 34 29 37 39
314 321 144 170 131 134 132 132 131 111 98 111 115 121 121 127 133 138 140 139 131 137 134 145 135 148 174 217 37 93 101 60 35 25 25 39 49 45 38 41 39 44 39 51
33 70 82 53 98 97 105 114 129 128 131 127 133 127 123 126 123 124 130 152 142 149 140 138 137 155 204 256 142 109 115 116 69 43 36 38 36 42 60 29 39 37 35 44
35 34 55 76 55 69 149 167 150 137 129 120 122 117 123 116 126 135 151 173 171 151 154 148 155 179 218 217 142 128 137 136 117 98 71 48 33 40 16 50 65 26 11 26
38 21 10 17 70 359 356 139 151 153 140 123 116 125 128 131 157 170 180 155 141 149 152 151 160 174 180 135 98 110 149 133 129 123 119 123 100 61 38 17 19 99 74 19
54 31 14 0 323 319 134 153 140 129 117 126 129 105 127 137 144 159 180 166 156 182 179 169 167 179 183 178 162 151 156 150 146 150 161 155 171 138 115 62 348 336 335 159
100 49 349 6 27 68 81 75 90 84 67 5 31 29 143 132 103 71 243 190 186 179 178 173 185 178 177 182 184 210 194 193 199 173 184 188 184 190 186 172 194 228 246 261
348 81 75 68 91 100 86 90 100 113 128 130 108 253 287 279 218 232 250 295 190 159 183 191 177 179 187 189 205 215 181 194 210 203 199 185 200 194 194 193 209 220 213 223
65 79 75 75 96 113 126 132 143 143 179 163 155 177 213 247 189 233 236 80 174 184 225 194 186 182 181 202 206 199 207 220 189 211 220 219 197 211 196 202 213 228 230 217
69 66 65 72 55 53 78 95 150 173 199 175 190 201 208 190 183 126 100 85 218 208 207 179 172 185 184 186 202 204 227 237 189 198 185 170 206 210 193 202 214 221 227 233
62 61 57 54 45 36 37 20 16 16 7 22 112 172 190 150 117 130 177 207 262 187 195 163 170 191 224 189 186 214 205 215 172 183 177 226 232 218 219 218 222 234 225 213
63 63 58 52 43 32 31 7 4 11 356 285 314 81 129 156 197 234 220 192 186 174 180 156 170 215 186 145 204 235 222 165 159 161 189 258 206 222 239 210 207 244 205 159
70 66 59 54 19 356 25 7 3 356 357 348 20 30 186 172 171 248 134 196 182 188 164 132 133 199 78 61 302 311 164 136 171 187 200 226 230 234 241 237 259 137 195 233
55 66 65 270 317 53 347 347 310 299 299 322 330 289 184 162 314 50 128 124 118 114 127 141 137 145 237 231 273 298 181 186 179 201 221 229 270 261 249 220 247 200 245 243
181 249 254 299 183 119 11 266 276 265 283 298 280 17 318 201 178 248 141 129 157 158 146 165 176 192 212 208 249 271 233 215 220 213 198 203 218 252 218 234 219 204 218 228
262 128 122 92 202 242 233 202 19 291 248 252 338 359 281 75 178 164 147 143 174 213 137 164 183 201 230 245 257 271 271 260 218 218 222 236 255 240 222 199 203 231 237 204
222 175 172 246 346 163 76 86 41 21 1 54 91 73 65 70 66 34 110 162 168 194 212 167 189 190 205 226 241 243 244 244 207 263 239 245 259 261 248 223 222 186 162 118